Retour au catalogue

DELTA 1 DEB

ActifPO
NORAD 21546·DEBRIS·🇺🇸 United States

Lancé Jun 12, 1975 depuis Vandenberg Space Force Base

Loading…

Prochains Passages (prochaines 24 heures)

TLE

FraisSource: Space-Track

Époque: Sep 14, 2026, 14:00 UTC

1 21546U 75052HA  26257.58387939  .00000857  00000-0  41512-2 0  9996
2 21546  99.5503 176.0001 0607035 145.0957 341.3342 12.28911732579522

Suivez DELTA 1 DEB en temps réel avec AllMySat

Download on the App Store